| time (UTC) | temp F | wind direction | speed knots | gust knots | rain 1hr in | rain 24hr in | rain mn in | humidity % | barometer mb |
| 20260503021512 | 56 | 200 | 1.7 | 3.5 | 0.00 | 0.41 | 0.04 | 91 | 1011.8 |
| 20260503021011 | 56 | 219 | 1.7 | 5.2 | 0.00 | 0.41 | 0.04 | 91 | 1011.9 |
| 20260503020512 | 57 | 252 | 1.7 | 5.2 | 0.00 | 0.41 | 0.04 | 91 | 1012.0 |
| 20260503020011 | 57 | 221 | 3.5 | 5.2 | 0.00 | 0.41 | 0.04 | 91 | 1012.0 |
| 20260503015510 | 57 | 219 | 2.6 | 3.5 | 0.00 | 0.41 | 0.04 | 91 | 1011.9 |
| 20260503015012 | 57 | 214 | 0.9 | 2.6 | 0.00 | 0.41 | 0.04 | 91 | 1011.7 |
| 20260503014510 | 57 | 121 | 0.9 | 1.7 | 0.00 | 0.41 | 0.04 | 91 | 1011.6 |
| 20260503014010 | 56 | 113 | 0.0 | 2.6 | 0.00 | 0.41 | 0.04 | 91 | 1011.7 |
| 20260503013510 | 56 | 127 | 0.9 | 2.6 | 0.00 | 0.41 | 0.04 | 91 | 1011.7 |
| 20260503013011 | 56 | 145 | 0.9 | 3.5 | 0.00 | 0.41 | 0.04 | 91 | 1011.7 |
| 20260503012511 | 56 | 139 | 1.7 | 3.5 | 0.00 | 0.41 | 0.04 | 91 | 1011.7 |
| 20260503012008 | 56 | 150 | 1.7 | 5.2 | 0.00 | 0.41 | 0.04 | 91 | 1011.7 |
| 20260503011509 | 56 | 101 | 4.3 | 5.2 | 0.00 | 0.41 | 0.04 | 91 | 1011.6 |
| 20260503011007 | 56 | 103 | 4.3 | 6.1 | 0.00 | 0.41 | 0.04 | 91 | 1011.7 |
| 20260503010509 | 56 | 96 | 3.5 | 6.1 | 0.00 | 0.41 | 0.04 | 91 | 1011.7 |
| 20260503010007 | 56 | 112 | 3.5 | 9.6 | 0.00 | 0.41 | 0.04 | 91 | 1011.8 |
| 20260503005506 | 56 | 131 | 5.2 | 8.7 | 0.00 | 0.41 | 0.04 | 91 | 1011.9 |
| 20260503005010 | 56 | 110 | 4.3 | 10.4 | 0.00 | 0.41 | 0.04 | 91 | 1011.9 |
| 20260503004507 | 56 | 123 | 5.2 | 10.4 | 0.00 | 0.41 | 0.04 | 91 | 1011.9 |
| 20260503004007 | 56 | 120 | 4.3 | 7.0 | 0.00 | 0.41 | 0.04 | 91 | 1011.9 |
| 20260503003503 | 56 | 101 | 3.5 | 7.0 | 0.01 | 0.41 | 0.04 | 91 | 1011.9 |
| 20260503003004 | 56 | 126 | 4.3 | 7.0 | 0.01 | 0.41 | 0.04 | 91 | 1012.0 |
| 20260503002506 | 56 | 96 | 3.5 | 5.2 | 0.01 | 0.41 | 0.04 | 91 | 1011.9 |
| 20260503002003 | 56 | 89 | 1.7 | 3.5 | 0.01 | 0.41 | 0.04 | 91 | 1011.9 |
| 20260503001504 | 56 | 65 | 0.9 | 3.5 | 0.01 | 0.41 | 0.04 | 91 | 1011.9 |
| 20260503001003 | 56 | 60 | 1.7 | 3.5 | 0.01 | 0.41 | 0.04 | 91 | 1011.8 |
| 20260503000502 | 56 | 68 | 0.9 | 5.2 | 0.01 | 0.41 | 0.04 | 91 | 1011.9 |
| 20260503000001 | 56 | 90 | 2.6 | 5.2 | 0.01 | 0.41 | 0.04 | 91 | 1012.0 |
| 20260502235600 | 56 | 64 | 1.7 | 4.3 | 0.02 | 0.41 | 0.04 | 91 | 1012.1 |
| 20260502235100 | 56 | 84 | 0.9 | 6.1 | 0.02 | 0.41 | 0.04 | 91 | 1012.2 |
| 20260502234600 | 56 | 79 | 3.5 | 6.1 | 0.02 | 0.41 | 0.04 | 91 | 1012.2 |
| 20260502234059 | 57 | 68 | 1.7 | 5.2 | 0.02 | 0.41 | 0.04 | 91 | 1012.4 |
| 20260502233559 | 56 | 72 | 2.6 | 5.2 | 0.02 | 0.40 | 0.03 | 91 | 1012.6 |
| 20260502233102 | 57 | 115 | 3.5 | 6.1 | 0.03 | 0.40 | 0.03 | 91 | 1012.7 |
| 20260502232558 | 57 | 66 | 3.5 | 6.1 | 0.03 | 0.40 | 0.03 | 90 | 1012.5 |
| 20260502232059 | 56 | 49 | 3.5 | 5.2 | 0.03 | 0.40 | 0.03 | 91 | 1012.5 |
| 20260502231603 | 56 | 27 | 2.6 | 6.1 | 0.03 | 0.40 | 0.03 | 90 | 1012.6 |
| 20260502231058 | 56 | 72 | 2.6 | 6.1 | 0.03 | 0.40 | 0.03 | 90 | 1012.8 |
| 20260502230558 | 56 | 84 | 2.6 | 7.0 | 0.03 | 0.40 | 0.03 | 90 | 1012.7 |
| 20260502230111 | 56 | 72 | 3.5 | 12.2 | 0.03 | 0.40 | 0.03 | 90 | 1012.7 |
| 20260502225556 | 56 | 88 | 7.0 | 13.0 | 0.02 | 0.39 | 0.02 | 90 | 1012.6 |
| 20260502225056 | 56 | 46 | 9.6 | 13.0 | 0.02 | 0.39 | 0.02 | 90 | 1012.0 |
| 20260502224554 | 56 | 58 | 4.3 | 9.6 | 0.02 | 0.39 | 0.02 | 90 | 1012.7 |
| 20260502224053 | 57 | 44 | 6.1 | 9.6 | 0.02 | 0.39 | 0.02 | 90 | 1012.8 |
| 20260502223552 | 57 | 90 | 5.2 | 8.7 | 0.00 | 0.37 | 0.00 | 90 | 1013.2 |
| 20260502223051 | 57 | 110 | 5.2 | 8.7 | 0.00 | 0.37 | 0.00 | 90 | 1013.2 |
| 20260502222551 | 57 | 129 | 4.3 | 6.1 | 0.01 | 0.37 | 0.00 | 90 | 1013.1 |
| 20260502222052 | 57 | 108 | 3.5 | 6.1 | 0.02 | 0.37 | 0.00 | 90 | 1013.0 |
| 20260502221549 | 57 | 19 | 3.5 | 6.1 | 0.04 | 0.37 | 0.00 | 90 | 1012.9 |
| 20260502221051 | 57 | 58 | 3.5 | 7.8 | 0.06 | 0.37 | 0.00 | 90 | 1012.9 |
| 20260502220548 | 57 | 44 | 5.2 | 7.8 | 0.08 | 0.37 | 0.00 | 90 | 1012.8 |
| 20260502220048 | 57 | 46 | 4.3 | 7.0 | 0.10 | 0.37 | 0.00 | 89 | 1013.0 |
| 20260502215546 | 57 | 50 | 3.5 | 7.0 | 0.12 | 0.37 | 0.37 | 89 | 1013.1 |
| 20260502215045 | 57 | 88 | 3.5 | 7.8 | 0.16 | 0.37 | 0.37 | 89 | 1013.2 |
| 20260502214545 | 57 | 48 | 3.5 | 7.8 | 0.24 | 0.37 | 0.37 | 89 | 1013.1 |
| 20260502214046 | 57 | 41 | 6.1 | 7.8 | 0.28 | 0.37 | 0.37 | 89 | 1013.1 |
| 20260502213545 | 57 | 49 | 6.1 | 9.6 | 0.36 | 0.37 | 0.37 | 89 | 1013.1 |
| 20260502213045 | 56 | 21 | 7.8 | 9.6 | 0.37 | 0.37 | 0.37 | 88 | 1013.2 |
| 20260502212544 | 57 | 11 | 7.0 | 8.7 | 0.36 | 0.36 | 0.36 | 88 | 1013.3 |
| 20260502212044 | 57 | 4 | 6.1 | 8.7 | 0.35 | 0.35 | 0.35 | 88 | 1013.6 |
| 20260502211552 | 57 | 10 | 7.8 | 8.7 | 0.32 | 0.32 | 0.32 | 87 | 1013.5 |
| 20260502211046 | 57 | 358 | 4.3 | 6.1 | 0.31 | 0.31 | 0.31 | 87 | 1014.1 |
| 20260502210546 | 57 | 286 | 2.6 | 7.0 | 0.28 | 0.28 | 0.28 | 86 | 1014.5 |
| 20260502210043 | 57 | 264 | 3.5 | 9.6 | 0.27 | 0.27 | 0.27 | 85 | 1014.7 |
| 20260502205542 | 58 | 264 | 4.3 | 12.2 | 0.25 | 0.25 | 0.25 | 84 | 1014.9 |
| 20260502205042 | 58 | 220 | 6.1 | 15.6 | 0.20 | 0.20 | 0.20 | 82 | 1015.0 |
| 20260502204541 | 60 | 256 | 9.6 | 17.4 | 0.13 | 0.13 | 0.13 | 76 | 1014.9 |
| 20260502204041 | 62 | 209 | 7.8 | 20.9 | 0.08 | 0.08 | 0.08 | 74 | 1014.8 |
| 20260502203538 | 63 | 193 | 16.5 | 20.9 | 0.00 | 0.00 | 0.00 | 71 | 1014.6 |
| 20260502203039 | 63 | 213 | 13.9 | 20.9 | 0.00 | 0.00 | 0.00 | 68 | 1014.4 |
| 20260502202537 | 63 | 41 | 0.9 | 5.2 | 0.00 | 0.00 | 0.00 | 68 | 1013.3 |
| 20260502202037 | 63 | 14 | 3.5 | 5.2 | 0.00 | 0.00 | 0.00 | 68 | 1013.1 |
| 20260502201537 | 63 | 11 | 2.6 | 5.2 | 0.00 | 0.00 | 0.00 | 69 | 1013.1 |
| 20260502201037 | 63 | 3 | 3.5 | 6.1 | 0.00 | 0.00 | 0.00 | 69 | 1013.0 |
| 20260502200537 | 63 | 11 | 4.3 | 6.1 | 0.00 | 0.00 | 0.00 | 68 | 1013.1 |
| 20260502200043 | 63 | 6 | 4.3 | 7.0 | 0.00 | 0.00 | 0.00 | 68 | 1013.1 |
| 20260502195536 | 63 | 15 | 5.2 | 7.8 | 0.00 | 0.00 | 0.00 | 68 | 1013.1 |
| 20260502195035 | 63 | 14 | 6.1 | 7.8 | 0.00 | 0.00 | 0.00 | 68 | 1013.2 |
| 20260502194535 | 63 | 1 | 5.2 | 7.0 | 0.00 | 0.00 | 0.00 | 68 | 1013.3 |
| 20260502194036 | 63 | 6 | 4.3 | 6.1 | 0.00 | 0.00 | 0.00 | 69 | 1013.4 |
| 20260502193534 | 63 | 4 | 4.3 | 6.1 | 0.00 | 0.00 | 0.00 | 69 | 1013.3 |
| 20260502193033 | 63 | 16 | 4.3 | 7.0 | 0.00 | 0.00 | 0.00 | 69 | 1013.4 |
| 20260502192532 | 63 | 13 | 4.3 | 7.0 | 0.00 | 0.00 | 0.00 | 68 | 1013.5 |
| 20260502192033 | 64 | 3 | 4.3 | 7.8 | 0.00 | 0.00 | 0.00 | 68 | 1013.5 |
| 20260502191534 | 64 | 8 | 5.2 | 7.8 | 0.00 | 0.00 | 0.00 | 67 | 1013.5 |
| 20260502191032 | 64 | 4 | 5.2 | 7.8 | 0.00 | 0.00 | 0.00 | 68 | 1013.4 |
| 20260502190532 | 64 | 4 | 5.2 | 7.8 | 0.00 | 0.00 | 0.00 | 68 | 1013.4 |
| 20260502190032 | 64 | 1 | 5.2 | 7.8 | 0.00 | 0.00 | 0.00 | 68 | 1013.5 |
| 20260502185532 | 65 | 359 | 6.1 | 7.8 | 0.00 | 0.00 | 0.00 | 67 | 1013.5 |
| 20260502185031 | 65 | 356 | 5.2 | 8.7 | 0.00 | 0.00 | 0.00 | 67 | 1013.6 |
| 20260502184536 | 66 | 14 | 7.0 | 8.7 | 0.00 | 0.00 | 0.00 | 66 | 1013.6 |
| 20260502184005 | 66 | 347 | 6.1 | 8.7 | 0.00 | 0.00 | 0.00 | 66 | 1013.5 |
| 20260502183505 | 67 | 359 | 5.2 | 8.7 | 0.00 | 0.00 | 0.00 | 65 | 1013.6 |
| 20260502183005 | 67 | 349 | 6.1 | 7.8 | 0.00 | 0.00 | 0.00 | 64 | 1013.6 |
| 20260502182504 | 67 | 18 | 4.3 | 6.1 | 0.00 | 0.00 | 0.00 | 62 | 1013.6 |
| 20260502182004 | 68 | 9 | 3.5 | 6.1 | 0.00 | 0.00 | 0.00 | 62 | 1013.6 |
| 20260502181504 | 68 | 11 | 4.3 | 6.1 | 0.00 | 0.00 | 0.00 | 62 | 1013.5 |
| 20260502181004 | 68 | 7 | 3.5 | 5.2 | 0.00 | 0.00 | 0.00 | 61 | 1013.6 |
| 20260502180504 | 68 | 11 | 3.5 | 5.2 | 0.00 | 0.00 | 0.00 | 61 | 1013.6 |
| 20260502164056 | 70 | 328 | 4.3 | 5.2 | 0.00 | 0.00 | 0.00 | 59 | 1014.2 |
| 20260502163555 | 70 | 315 | 3.5 | 4.3 | 0.00 | 0.00 | 0.00 | 59 | 1014.3 |
| 20260502163101 | 70 | 310 | 2.6 | 5.2 | 0.00 | 0.00 | 0.00 | 60 | 1014.4 |
| 20260502162555 | 70 | 293 | 3.5 | 6.1 | 0.00 | 0.00 | 0.00 | 60 | 1014.5 |
| 20260502162054 | 70 | 289 | 4.3 | 7.0 | 0.00 | 0.00 | 0.00 | 61 | 1014.5 |
| 20260502161556 | 70 | 290 | 5.2 | 7.0 | 0.00 | 0.00 | 0.00 | 61 | 1014.5 |
| 20260502161052 | 70 | 297 | 5.2 | 7.0 | 0.00 | 0.00 | 0.00 | 61 | 1014.5 |
| 20260502160552 | 70 | 292 | 4.3 | 5.2 | 0.00 | 0.00 | 0.00 | 61 | 1014.6 |
| 20260502152046 | 69 | 293 | 4.3 | 7.0 | 0.00 | 0.00 | 0.00 | 63 | 1015.1 |
| 20260502151550 | 69 | 291 | 4.3 | 7.0 | 0.00 | 0.00 | 0.00 | 64 | 1015.2 |
| 20260502151044 | 69 | 314 | 5.2 | 7.8 | 0.00 | 0.00 | 0.00 | 63 | 1015.3 |
| 20260502150544 | 69 | 292 | 5.2 | 7.8 | 0.00 | 0.00 | 0.00 | 65 | 1015.4 |
| 20260502130529 | 66 | 274 | 7.8 | 9.6 | 0.00 | 0.00 | 0.00 | 69 | 1016.9 |
| 20260502123525 | 66 | 273 | 7.0 | 11.3 | 0.00 | 0.00 | 0.00 | 71 | 1017.0 |
| 20260502123029 | 66 | 278 | 5.2 | 11.3 | 0.00 | 0.00 | 0.00 | 69 | 1017.1 |
| 20260502122523 | 66 | 285 | 6.1 | 9.6 | 0.00 | 0.00 | 0.00 | 70 | 1017.2 |
| 20260502122025 | 66 | 276 | 6.1 | 9.6 | 0.00 | 0.00 | 0.00 | 70 | 1017.2 |
| 20260502121522 | 66 | 272 | 7.0 | 9.6 | 0.00 | 0.00 | 0.00 | 70 | 1017.3 |
| 20260502121021 | 66 | 276 | 6.1 | 10.4 | 0.00 | 0.00 | 0.00 | 70 | 1017.3 |
| 20260502120519 | 66 | 278 | 6.1 | 10.4 | 0.00 | 0.00 | 0.00 | 69 | 1017.4 |
| 20260502115518 | 67 | 274 | 3.5 | 7.0 | 0.00 | 0.00 | 0.00 | 67 | 1017.5 |
| 20260502115017 | 66 | 247 | 2.6 | 7.8 | 0.00 | 0.00 | 0.00 | 69 | 1017.6 |
| 20260502114517 | 66 | 276 | 2.6 | 7.8 | 0.00 | 0.00 | 0.00 | 69 | 1017.6 |
| 20260502114017 | 67 | 275 | 4.3 | 12.2 | 0.00 | 0.00 | 0.00 | 67 | 1017.7 |
| 20260502113519 | 68 | 245 | 5.2 | 12.2 | 0.00 | 0.00 | 0.00 | 65 | 1017.6 |
| 20260502113017 | 68 | 213 | 5.2 | 8.7 | 0.00 | 0.00 | 0.00 | 65 | 1017.6 |
| 20260502112517 | 68 | 212 | 5.2 | 8.7 | 0.00 | 0.00 | 0.00 | 65 | 1017.7 |
| 20260502112014 | 68 | 231 | 6.1 | 8.7 | 0.00 | 0.00 | 0.00 | 65 | 1017.8 |
| 20260502111514 | 67 | 217 | 3.5 | 8.7 | 0.00 | 0.00 | 0.00 | 66 | 1017.8 |
| 20260502111013 | 68 | 250 | 3.5 | 7.8 | 0.00 | 0.00 | 0.00 | 65 | 1017.8 |
| 20260502110513 | 67 | 219 | 2.6 | 6.1 | 0.00 | 0.00 | 0.00 | 66 | 1017.8 |
| 20260502110011 | 67 | 202 | 2.6 | 7.8 | 0.00 | 0.00 | 0.00 | 66 | 1017.9 |
| 20260502105511 | 67 | 259 | 1.7 | 7.8 | 0.00 | 0.00 | 0.00 | 67 | 1017.8 |
| 20260502105011 | 67 | 244 | 5.2 | 9.6 | 0.00 | 0.00 | 0.00 | 67 | 1017.9 |
| 20260502104515 | 67 | 245 | 5.2 | 7.0 | 0.00 | 0.00 | 0.00 | 66 | 1018.0 |
| 20260502104008 | 66 | 262 | 4.3 | 8.7 | 0.00 | 0.00 | 0.00 | 67 | 1018.1 |
| 20260502103508 | 66 | 248 | 4.3 | 8.7 | 0.00 | 0.00 | 0.00 | 67 | 1018.1 |
| 20260502103008 | 66 | 265 | 4.3 | 8.7 | 0.00 | 0.00 | 0.00 | 67 | 1018.2 |
| 20260502102507 | 67 | 264 | 4.3 | 8.7 | 0.00 | 0.00 | 0.00 | 66 | 1018.2 |
| 20260502102006 | 67 | 272 | 1.7 | 8.7 | 0.00 | 0.00 | 0.00 | 65 | 1018.2 |
| 20260502101506 | 66 | 191 | 3.5 | 10.4 | 0.00 | 0.00 | 0.00 | 65 | 1018.2 |
| 20260502101011 | 67 | 198 | 6.1 | 11.3 | 0.00 | 0.00 | 0.00 | 65 | 1018.2 |
| 20260502100504 | 66 | 196 | 6.1 | 11.3 | 0.00 | 0.00 | 0.00 | 66 | 1018.3 |
| 20260502091059 | 64 | 238 | 3.5 | 7.0 | 0.00 | 0.00 | 0.00 | 69 | 1018.6 |
| 20260502090554 | 63 | 203 | 5.2 | 8.7 | 0.00 | 0.00 | 0.00 | 69 | 1018.6 |
| 20260502071045 | 56 | 124 | 1.7 | 3.5 | 0.00 | 0.00 | 0.00 | 64 | 1018.3 |
| 20260502070546 | 56 | 129 | 2.6 | 3.5 | 0.00 | 0.00 | 0.00 | 63 | 1018.3 |
| 20260502070045 | 56 | 139 | 2.6 | 3.5 | 0.00 | 0.00 | 0.00 | 63 | 1018.4 |
| 20260502065545 | 56 | 124 | 1.7 | 2.6 | 0.00 | 0.00 | 0.00 | 61 | 1018.4 |
| 20260502065045 | 56 | 167 | 0.9 | 1.7 | 0.00 | 0.00 | 0.00 | 61 | 1018.4 |
| 20260502064543 | 56 | 213 | 0.9 | 1.7 | 0.00 | 0.00 | 0.00 | 62 | 1018.4 |
| 20260502064042 | 56 | 255 | 0.0 | 0.9 | 0.00 | 0.00 | 0.00 | 62 | 1018.3 |
| 20260502063541 | 55 | 255 | 0.0 | 0.9 | 0.00 | 0.00 | 0.00 | 62 | 1018.2 |
| 20260502063055 | 55 | 255 | 0.0 | 1.7 | 0.00 | 0.00 | 0.00 | 62 | 1018.4 |
| 20260502062541 | 55 | 255 | 0.9 | 1.7 | 0.00 | 0.00 | 0.00 | 62 | 1018.4 |
| 20260502062040 | 55 | 236 | 0.0 | 1.7 | 0.00 | 0.00 | 0.00 | 61 | 1018.3 |
| 20260502061547 | 55 | 263 | 0.9 | 1.7 | 0.00 | 0.00 | 0.00 | 61 | 1018.4 |
| 20260502061041 | 54 | 310 | 0.9 | 2.6 | 0.00 | 0.00 | 0.00 | 60 | 1018.4 |
| 20260502060539 | 54 | 173 | 0.0 | 6.1 | 0.00 | 0.00 | 0.00 | 60 | 1018.5 |
| 20260502060040 | 54 | 180 | 3.5 | 6.1 | 0.00 | 0.00 | 0.00 | 60 | 1018.8 |
| 20260502055539 | 54 | 203 | 3.5 | 5.2 | 0.00 | 0.00 | 0.00 | 60 | 1018.8 |
| 20260502055039 | 54 | 181 | 3.5 | 5.2 | 0.00 | 0.00 | 0.00 | 60 | 1018.8 |
| 20260502054539 | 54 | 157 | 1.7 | 6.1 | 0.00 | 0.00 | 0.00 | 60 | 1018.8 |
| 20260502054038 | 53 | 194 | 4.3 | 6.1 | 0.00 | 0.00 | 0.00 | 60 | 1018.8 |
| 20260502053536 | 53 | 195 | 4.3 | 6.1 | 0.00 | 0.00 | 0.00 | 60 | 1018.7 |
| 20260502053047 | 53 | 174 | 0.9 | 2.6 | 0.00 | 0.00 | 0.00 | 61 | 1018.5 |
| 20260502052535 | 53 | 196 | 0.9 | 4.3 | 0.00 | 0.00 | 0.00 | 60 | 1018.4 |
| 20260502052035 | 53 | 192 | 2.6 | 5.2 | 0.00 | 0.00 | 0.00 | 60 | 1018.3 |
| 20260502051536 | 53 | 184 | 2.6 | 7.0 | 0.00 | 0.00 | 0.00 | 60 | 1018.5 |
| 20260502051034 | 53 | 180 | 3.5 | 7.0 | 0.00 | 0.00 | 0.00 | 60 | 1018.4 |
| 20260502050533 | 53 | 200 | 2.6 | 4.3 | 0.00 | 0.00 | 0.00 | 60 | 1018.4 |
| 20260502050033 | 54 | 191 | 2.6 | 4.3 | 0.00 | 0.00 | 0.00 | 59 | 1018.4 |
| 20260502045533 | 54 | 198 | 1.7 | 3.5 | 0.00 | 0.00 | 0.00 | 59 | 1018.4 |
| 20260502045033 | 54 | 210 | 1.7 | 5.2 | 0.00 | 0.00 | 0.00 | 58 | 1018.2 |
| 20260502044532 | 54 | 208 | 4.3 | 5.2 | 0.00 | 0.00 | 0.00 | 57 | 1018.5 |
| 20260502044031 | 54 | 210 | 3.5 | 4.3 | 0.00 | 0.00 | 0.00 | 57 | 1018.4 |
| 20260502043531 | 54 | 207 | 2.6 | 4.3 | 0.00 | 0.00 | 0.00 | 57 | 1018.4 |
| 20260502043031 | 54 | 207 | 1.7 | 4.3 | 0.00 | 0.00 | 0.00 | 58 | 1018.3 |
| 20260502042532 | 54 | 187 | 2.6 | 4.3 | 0.00 | 0.00 | 0.00 | 59 | 1018.3 |
| 20260502042032 | 54 | 172 | 2.6 | 3.5 | 0.00 | 0.00 | 0.00 | 58 | 1018.4 |
| 20260502041529 | 54 | 141 | 1.7 | 3.5 | 0.00 | 0.00 | 0.00 | 58 | 1018.2 |
| 20260502041029 | 54 | 125 | 2.6 | 3.5 | 0.00 | 0.00 | 0.00 | 58 | 1018.2 |
| 20260502040529 | 54 | 136 | 2.6 | 3.5 | 0.00 | 0.00 | 0.00 | 58 | 1018.2 |
| 20260502040029 | 54 | 146 | 1.7 | 3.5 | 0.00 | 0.00 | 0.00 | 57 | 1018.1 |
| 20260502035528 | 54 | 118 | 1.7 | 3.5 | 0.00 | 0.00 | 0.00 | 58 | 1018.2 |
| 20260502035028 | 54 | 131 | 2.6 | 4.3 | 0.00 | 0.00 | 0.00 | 57 | 1018.3 |
| 20260502034527 | 54 | 144 | 2.6 | 4.3 | 0.00 | 0.00 | 0.00 | 56 | 1018.4 |
| 20260502034026 | 54 | 191 | 1.7 | 6.1 | 0.00 | 0.00 | 0.00 | 57 | 1018.4 |
| 20260502033526 | 54 | 127 | 4.3 | 6.1 | 0.00 | 0.00 | 0.00 | 57 | 1018.4 |
| 20260502033025 | 54 | 170 | 1.7 | 5.2 | 0.00 | 0.00 | 0.00 | 57 | 1018.4 |
| 20260502032524 | 54 | 135 | 2.6 | 5.2 | 0.00 | 0.00 | 0.00 | 56 | 1018.3 |
| 20260502032024 | 54 | 162 | 3.5 | 4.3 | 0.00 | 0.00 | 0.00 | 56 | 1018.4 |
| 20260502031524 | 54 | 128 | 3.5 | 4.3 | 0.00 | 0.00 | 0.00 | 56 | 1018.5 |
| 20260502031023 | 54 | 170 | 1.7 | 3.5 | 0.00 | 0.00 | 0.00 | 56 | 1018.6 |
| 20260502030525 | 53 | 223 | 1.7 | 3.5 | 0.00 | 0.00 | 0.00 | 57 | 1018.7 |
| 20260502030024 | 54 | 264 | 1.7 | 5.2 | 0.00 | 0.00 | 0.00 | 58 | 1018.7 |
| 20260502025519 | 54 | 257 | 2.6 | 5.2 | 0.00 | 0.00 | 0.00 | 57 | 1018.8 |
| 20260502025019 | 55 | 124 | 3.5 | 4.3 | 0.00 | 0.00 | 0.00 | 56 | 1018.6 |
| 20260502024518 | 55 | 122 | 2.6 | 4.3 | 0.00 | 0.00 | 0.00 | 56 | 1018.5 |
| 20260502024018 | 55 | 124 | 2.6 | 3.5 | 0.00 | 0.00 | 0.00 | 56 | 1018.6 |
| 20260502023518 | 55 | 129 | 1.7 | 2.6 | 0.00 | 0.00 | 0.00 | 56 | 1018.6 |
| 20260502023017 | 55 | 117 | 1.7 | 2.6 | 0.00 | 0.00 | 0.00 | 56 | 1018.6 |
| 20260502022513 | 55 | 124 | 0.9 | 3.5 | 0.00 | 0.00 | 0.00 | 57 | 1018.6 |
| 20260502022017 | 56 | 120 | 0.9 | 3.5 | 0.00 | 0.00 | 0.00 | 55 | 1018.7 |